Lapse_Rate
6.5 6.5 6.5 6.5 6.5 6.5 6.5 6.5 6.5 6.5 6.5 6.5 6.5 6.5 6.6 7.1 7.3 7.3 7.4 7.6 7.8 8.0 8.3 8.4 8.3 7.5 6.0 4.5 3.6 2.2 1.1 2.7 5.6 5.8 6.0 6.2 5.1 5.9 6.5 6.6 7.1 6.8 6.5 6.0
6.5 6.5 6.5 6.5 6.5 6.5 6.5 6.5 6.5 6.5 6.5 6.5 6.7 6.9 6.8 7.1 7.2 7.3 7.5 7.7 7.9 8.0 7.9 7.9 6.6 5.5 6.1 5.3 3.2 2.1 1.6 2.4 5.8 6.0 5.4 5.3 5.3 5.6 6.0 6.3 6.7 6.6 6.8 5.6
6.5 6.5 6.5 6.5 6.5 6.5 6.5 6.5 6.5 6.5 6.5 6.5 6.5 6.5 6.8 7.1 7.3 7.3 7.5 7.7 7.7 7.7 7.6 6.7 5.5 4.9 5.7 5.6 4.4 2.6 2.4 4.7 5.5 5.7 5.4 5.3 5.6 5.8 5.8 6.5 6.5 6.5 6.4 6.3
6.5 6.5 6.5 6.5 6.5 6.5 6.5 6.5 6.5 6.5 6.5 6.5 6.7 7.1 7.4 7.6 7.4 7.5 7.7 7.7 7.5 7.4 6.3 5.5 5.1 4.2 4.8 5.2 4.5 2.6 -0.3 0.6 3.5 5.4 5.4 5.4 5.8 6.2 5.9 6.1 6.2 6.7 6.4 5.9
6.5 6.5 6.5 6.5 6.5 6.5 6.5 6.5 6.5 6.5 6.5 6.7 7.1 7.2 7.0 7.7 7.9 7.8 7.7 7.5 6.8 6.4 6.2 5.1 4.5 4.0 4.6 4.1 3.7 2.6 1.4 -0.5 -0.7 0.9 5.3 5.6 6.1 6.2 6.2 6.2 5.9 5.2 3.5 2.2
6.5 6.5 6.5 6.5 6.5 6.9 6.5 6.5 6.5 6.6 6.5 6.5 6.8 6.5 6.5 7.8 8.0 8.0 7.0 6.5 5.8 5.7 5.3 4.5 3.9 3.8 4.4 3.1 2.8 2.2 1.5 1.6 0.1 -1.2 0.3 1.9 3.0 3.8 3.2 3.4 1.0 -1.1 -2.6 -3.2
6.5 6.5 6.5 6.5 6.6 6.9 6.5 6.5 6.9 6.9 7.0 7.0 6.5 6.8 7.6 8.1 8.0 8.0 6.8 5.9 5.4 6.1 4.8 4.4 4.3 3.8 4.4 3.7 3.8 3.1 1.5 1.7 1.7 -1.0 -1.6 -1.6 -1.1 -0.5 -0.2 -1.4 -2.9 -3.8 -4.5 -4.8
6.5 6.5 6.5 7.0 6.7 6.5 6.6 6.9 6.9 7.2 7.3 7.1 7.4 7.6 7.8 8.0 7.9 7.0 6.1 5.1 4.6 4.3 3.7 3.0 3.8 4.2 4.0 4.4 3.9 2.7 1.5 1.5 1.5 0.1 0.4 -1.5 -2.6 -2.7 -2.5 -3.0 -3.6 -4.5 -5.2 -5.8
6.5 6.5 6.8 7.0 6.8 7.0 7.5 7.2 7.4 7.4 7.6 7.6 7.5 7.6 7.8 7.9 7.9 6.4 6.1 5.2 4.6 4.0 3.5 2.9 2.6 3.6 4.6 5.3 4.3 3.2 1.7 1.0 0.5 0.9 0.9 0.2 0.1 -1.6 -2.7 -3.1 -3.7 -3.8 -4.2 -4.7
6.5 6.5 6.6 7.0 6.9 6.9 7.1 7.6 8.0 8.0 7.9 7.9 7.6 7.8 7.9 8.1 8.1 7.0 6.0 5.2 4.8 4.7 4.3 3.5 3.1 3.0 4.2 5.4 4.8 4.6 2.6 1.1 0.5 0.6 0.2 -0.4 -0.1 -1.0 -0.1 0.4 -1.2 -1.5 -2.0 -2.3
6.5 6.6 6.9 7.2 7.2 7.0 7.1 7.8 8.1 8.2 8.2 8.0 8.0 8.0 8.1 8.1 8.2 8.3 7.8 6.9 5.4 5.1 5.0 4.5 3.9 3.6 4.1 4.3 5.2 4.5 4.1 3.5 2.6 3.0 1.7 1.0 0.9 0.4 0.4 0.6 0.4 0.3 0.0 -0.2
6.5 6.8 6.9 7.0 7.0 6.9 6.8 6.9 8.1 8.1 8.0 8.3 8.3 8.1 8.3 8.2 8.4 8.5 8.4 8.3 7.1 6.1 6.0 5.3 4.4 4.1 4.3 4.8 4.1 4.9 4.7 4.6 4.3 4.2 3.1 2.8 2.9 2.9 3.6 2.9 2.2 1.9 2.2 2.0
6.9 6.9 7.2 6.9 6.8 6.8 6.9 6.9 7.8 8.2 8.3 8.2 8.4 8.4 8.5 8.3 8.5 8.4 8.6 8.4 7.8 6.1 5.5 5.4 4.7 4.5 4.4 5.4 5.3 4.7 5.6 5.7 5.7 5.6 6.2 5.8 5.2 4.4 4.5 4.7 3.8 3.8 4.6 4.9
6.8 6.8 7.0 7.1 7.1 6.9 7.0 7.3 8.0 8.3 8.5 8.6 8.6 8.6 8.5 8.4 8.5 8.3 7.2 8.0 7.5 6.0 5.1 4.8 4.9 4.4 5.6 5.2 5.9 5.6 5.3 5.7 5.8 5.9 6.3 6.6 6.1 4.9 4.1 3.5 3.9 4.9 5.6 5.6
7.3 7.6 6.9 6.8 6.8 7.0 7.1 7.1 7.8 8.1 8.3 8.3 8.6 8.5 8.4 8.2 8.1 8.1 7.7 7.8 7.5 5.7 4.8 4.6 4.1 4.2 5.3 6.1 5.5 5.6 6.4 6.1 6.2 6.2 6.5 6.7 6.5 6.0 6.0 6.1 6.4 6.2 6.0 5.6
7.8 8.0 7.9 7.5 7.2 7.1 7.1 7.1 7.5 8.1 8.2 8.3 8.2 8.3 8.5 8.4 8.3 8.1 7.7 6.2 5.7 5.3 5.0 4.3 4.6 4.3 5.5 6.5 6.3 6.8 6.9 6.5 6.7 6.6 6.2 5.8 5.5 5.0 4.6 4.6 4.5 4.8 5.9 6.4
7.3 7.1 7.6 7.6 7.7 7.5 7.6 8.1 8.3 8.2 8.3 8.1 8.0 7.2 7.7 8.4 8.4 8.2 7.9 7.0 5.5 5.3 5.9 4.9 4.8 4.5 4.7 6.3 7.0 7.2 6.6 6.2 6.1 6.3 6.1 5.9 5.4 4.7 4.3 3.5 3.4 3.6 4.3 5.3
8.3 8.3 8.3 8.2 8.1 8.1 8.1 8.3 8.3 8.2 8.0 7.7 7.2 6.1 5.5 5.5 6.9 6.4 6.6 7.2 6.2 5.0 4.3 6.0 5.8 5.4 5.1 5.8 6.6 6.5 6.2 5.9 5.7 5.9 6.1 5.8 5.7 5.8 5.3 4.8 4.7 4.5 5.2 5.2
8.4 8.2 8.1 8.1 8.3 8.3 8.3 8.2 8.1 8.0 7.2 7.4 7.0 6.4 6.3 6.6 6.9 6.2 5.6 4.8 5.0 5.2 5.2 5.2 7.1 6.6 6.4 6.2 6.7 6.8 6.4 6.1 6.3 6.4 6.3 6.4 6.3 6.5 6.5 6.2 6.1 6.0 5.6 4.9
8.2 8.3 8.2 6.3 5.9 7.2 7.4 7.6 7.4 6.4 7.0 7.5 7.1 7.4 6.9 5.5 5.2 6.2 5.9 5.0 5.6 7.0 6.3 5.7 6.5 7.4 7.6 7.0 6.9 7.1 6.8 6.2 6.3 6.3 6.0 5.8 5.5 5.8 6.2 6.6 6.6 6.5 5.8 5.2
7.8 7.8 7.3 7.0 7.1 7.4 7.2 7.5 7.2 6.2 5.6 5.5 6.9 6.6 6.3 5.8 5.1 5.5 7.3 7.5 6.8 7.4 6.8 5.3 5.6 6.6 8.1 8.4 8.2 7.9 7.8 7.5 7.5 7.6 7.8 7.8 7.9 7.8 7.8 8.0 7.7 7.3 7.2 6.8
7.9 7.8 7.7 7.8 7.8 7.6 7.5 7.8 6.9 6.5 6.9 6.9 6.3 6.6 7.3 7.1 5.8 5.4 5.2 7.2 7.9 7.0 6.2 5.3 5.6 5.8 7.1 7.2 7.5 7.5 7.6 7.7 7.8 7.9 7.9 7.8 7.8 7.7 7.7 7.6 7.4 7.3 7.2 7.0
7.9 7.9 7.9 7.8 7.7 7.3 7.1 6.6 6.4 6.5 6.2 5.9 5.6 6.5 8.1 8.2 7.8 7.4 6.8 6.7 6.3 5.2 5.9 5.3 5.2 6.1 7.8 8.0 8.1 8.0 7.7 7.6 7.7 7.7 7.5 7.4 7.5 7.5 7.7 7.7 7.7 7.6 7.4 6.9
8.0 8.1 8.1 7.9 7.3 7.7 7.7 7.8 7.5 7.1 6.9 7.3 6.1 6.0 7.3 7.8 8.1 8.7 8.5 7.2 6.2 4.9 4.4 5.2 5.5 6.1 7.1 7.8 7.6 7.5 7.8 8.0 8.1 7.9 7.6 7.5 7.6 7.6 7.4 6.5 5.6 5.4 4.6 3.6
7.4 7.1 7.2 7.1 7.6 8.1 7.8 7.7 6.7 7.1 7.8 8.5 8.6 8.8 8.9 8.7 7.8 7.6 8.4 8.1 7.0 8.4 7.2 5.2 5.7 6.1 7.1 7.7 7.3 6.3 6.0 6.3 7.2 8.0 8.0 8.0 8.2 7.8 7.0 5.8 5.9 5.4 4.9 4.8
7.4 7.8 8.4 7.4 8.3 8.7 8.8 8.8 8.5 8.7 8.6 8.0 8.3 8.6 8.7 8.8 8.9 8.6 8.1 8.1 8.2 8.7 8.5 7.2 6.7 8.2 7.6 7.4 7.1 7.1 6.9 6.0 6.8 7.3 7.4 7.2 6.9 6.5 5.9 6.2 5.6 5.2 4.1 2.9
8.5 8.1 8.5 8.5 8.9 8.8 8.5 8.2 8.0 8.0 7.9 7.9 8.2 8.7 8.7 8.4 8.1 8.7 8.2 8.8 8.7 8.6 8.6 8.5 7.3 6.6 7.6 8.3 8.0 8.4 7.1 6.0 4.5 6.7 7.3 6.9 6.3 5.0 4.6 4.4 4.0 3.8 3.5 3.1
Wind_Speed
14 11 6 8 9 7 15 12 8 13 4 10 12 15 11 12 13 13 14 14 14 14 14 15 14 15 16 17 17 16 16 15 9 9 10 9 11 10 9 7 8 7 9 9
16 10 13 4 6 10 15 9 10 5 1 13 10 12 12 13 13 11 12 13 14 15 16 16 16 15 17 18 18 16 17 13 7 8 7 9 10 10 10 9 9 8 11 10
4 13 10 3 7 5 7 4 3 6 8 10 15 14 11 9 10 12 12 12 12 13 14 14 14 15 16 16 15 15 15 9 9 9 7 6 9 11 9 9 9 9 9 9
6 7 1 11 21 17 14 19 17 14 14 15 15 13 11 12 13 11 11 11 11 10 12 13 13 14 15 14 13 14 15 15 8 8 7 8 9 10 10 7 6 8 9 8
4 7 4 20 16 9 9 10 17 10 11 11 13 13 12 11 11 9 10 10 9 9 10 10 13 14 14 14 13 13 15 14 14 12 6 8 11 11 9 9 7 6 7 9
8 5 3 10 17 10 7 3 15 12 12 6 5 2 5 10 10 10 10 9 9 9 10 11 13 14 13 15 15 16 15 13 12 11 9 7 6 6 4 10 11 9 11 11
7 5 5 16 18 14 3 5 8 13 12 14 8 6 6 8 10 10 9 10 11 9 9 12 13 13 13 15 16 14 13 12 11 13 11 9 8 7 10 12 12 11 13 11
6 4 0 21 7 6 2 5 8 7 10 9 8 8 8 9 9 10 11 12 13 10 11 12 13 13 14 15 13 12 13 13 14 12 10 9 11 10 12 13 13 10 11 10
4 3 5 8 9 10 10 7 9 9 9 9 8 8 9 8 9 10 10 10 10 9 10 11 13 13 14 11 11 11 12 15 17 14 10 12 12 13 10 10 9 9 9 9
4 5 6 8 8 10 12 11 11 11 10 8 8 8 8 8 9 8 8 10 10 10 10 11 12 13 13 11 9 9 13 15 15 15 16 15 11 13 11 8 9 9 9 8
4 4 2 10 8 9 10 11 10 10 11 11 9 9 9 10 11 10 9 8 9 10 11 12 11 11 12 13 11 10 11 12 13 10 14 16 17 12 12 13 10 9 9 8
2 6 4 5 7 9 9 10 11 10 9 10 11 10 11 10 10 10 10 11 11 12 12 12 12 12 12 12 12 10 10 9 9 9 10 10 11 15 30 26 29 28 23 15
2 2 7 6 7 7 8 8 8 10 11 9 10 10 10 10 10 11 11 12 11 10 11 11 11 11 12 11 10 11 9 8 7 9 8 7 8 10 11 18 31 28 26 27
4 2 5 10 5 6 4 3 4 7 8 10 10 10 11 11 11 12 12 11 12 12 12 12 12 12 10 11 9 10 9 12 7 7 7 6 8 10 9 11 11 11 23 22
6 7 6 5 6 8 8 9 5 8 8 9 9 9 10 10 11 11 11 11 11 12 12 12 11 13 12 9 10 10 7 6 6 7 7 8 9 10 9 9 8 7 7 10
3 5 5 7 7 8 9 10 9 8 9 10 11 11 9 10 10 10 10 11 11 11 11 11 11 12 11 9 8 7 8 10 9 7 7 8 9 9 9 9 9 9 8 8
0 3 6 6 6 7 7 8 9 10 10 10 10 10 10 8 9 9 9 9 9 9 9 10 10 10 11 10 8 6 5 7 9 7 8 8 8 8 8 8 8 9 9 10
9 9 10 9 8 7 8 10 10 10 9 9 8 7 8 8 8 8 8 8 8 8 11 10 8 8 10 10 8 6 6 6 7 7 7 7 8 7 8 8 8 9 8 9
10 10 11 12 10 10 9 9 9 8 8 6 6 6 6 5 5 6 7 8 9 9 10 11 9 9 9 11 8 6 6 7 7 7 7 8 7 7 7 8 8 8 8 7
10 10 10 10 11 10 8 7 7 7 7 5 5 5 6 6 7 3 7 9 8 6 7 10 10 8 8 9 8 5 6 7 7 7 6 6 7 7 8 9 8 7 7 7
8 8 8 8 7 6 6 5 5 6 6 6 5 4 3 4 6 8 8 7 8 8 8 10 9 8 7 6 6 6 6 6 6 6 6 6 6 7 6 7 6 6 6 6
7 6 5 5 6 6 6 6 6 4 4 3 3 5 3 5 5 8 8 7 6 10 7 6 7 10 8 9 7 7 8 8 6 6 6 6 6 6 6 6 6 6 6 5
6 6 6 5 6 6 6 5 5 5 5 6 6 7 4 5 6 6 6 8 7 9 7 6 9 11 8 6 6 7 8 8 7 7 6 6 6 6 6 5 5 6 6 6
6 6 5 3 3 4 6 4 5 5 3 5 3 3 6 4 5 6 6 5 6 6 6 6 7 9 9 6 7 7 7 6 6 5 5 6 5 5 5 5 4 4 4 5
4 3 2 3 4 4 4 2 3 4 4 5 5 6 7 6 5 5 5 4 7 6 6 6 7 7 6 6 5 5 5 6 6 5 5 5 5 5 6 6 5 4 3 3
5 3 4 5 4 3 3 3 3 4 3 3 5 4 4 4 3 3 3 2 4 5 5 5 5 4 5 5 5 6 6 6 4 4 4 4 5 4 3 3 2 5 7 9
3 1 2 3 2 3 4 4 5 4 5 5 4 4 4 3 1 2 3 4 4 4 4 4 4 4 4 5 5 5 5 5 7 5 5 5 5 5 5 6 7 8 7 8
Wind_Direction
295 285 347 328 327 303 221 226 251 131 213 37 87 79 61 52 51 38 30 9 358 353 349 342 338 335 328 320 316 315 309 297 196 203 208 202 166 152 163 162 164 172 156 156
298 279 160 200 279 348 317 350 305 150 180 86 124 97 67 48 44 32 23 6 0 348 345 338 338 330 323 321 320 317 300 287 191 191 176 166 159 153 163 159 156 174 173 159
324 359 354 358 2 228 247 123 310 25 111 124 87 79 62 54 41 32 15 4 356 350 343 338 336 328 326 324 323 328 329 265 181 184 177 170 156 154 158 167 157 163 168 160
300 294 54 51 15 13 359 44 33 56 60 89 99 92 68 43 36 26 6 2 355 354 349 340 336 336 332 331 338 353 357 356 342 175 181 168 160 150 161 163 164 161 162 154
312 321 272 33 4 7 21 46 5 33 71 102 120 97 56 39 37 32 13 9 358 359 348 339 345 341 342 349 350 8 357 357 348 349 188 168 165 160 158 157 155 80 52 52
304 310 2 7 344 1 309 76 342 16 30 66 143 43 55 28 28 31 22 8 358 359 359 358 353 348 355 4 3 3 360 350 352 2 13 63 73 112 67 96 90 87 72 57
283 264 113 354 339 310 289 12 352 19 36 39 64 61 56 31 40 32 24 9 5 11 18 6 354 349 8 12 6 350 1 358 4 22 15 36 59 70 99 94 90 81 80 60
318 318 153 358 15 40 338 22 17 22 47 58 65 64 58 45 43 26 18 15 18 17 17 11 2 359 11 15 351 354 12 21 15 27 22 30 60 63 76 92 93 87 84 73
38 44 43 24 31 25 22 39 35 36 41 46 51 55 56 49 45 31 22 19 19 18 18 15 10 8 9 356 356 352 17 33 32 21 25 48 38 60 58 69 85 85 82 79
252 52 46 42 29 21 20 22 22 26 34 45 55 47 53 52 46 49 27 25 16 18 24 21 19 12 3 360 14 11 27 38 36 31 39 44 44 54 51 45 72 73 83 84
104 59 55 69 32 25 31 23 21 41 34 20 42 47 51 45 39 42 45 37 25 20 24 24 21 20 8 5 16 28 34 43 49 39 47 55 52 57 65 58 70 80 71 74
2 344 284 64 37 41 42 27 12 22 43 48 36 39 51 48 45 38 36 31 28 26 27 26 24 21 15 18 19 31 39 35 43 43 50 56 62 66 59 66 69 69 70 76
73 56 81 97 68 40 49 38 24 26 23 30 45 42 48 58 44 45 41 37 35 29 22 21 24 28 15 18 28 35 38 35 43 48 48 58 70 76 78 60 60 62 67 70
53 347 121 52 45 32 7 21 62 40 39 40 33 39 49 53 46 40 28 35 35 31 28 23 21 17 16 18 37 45 47 43 46 54 64 72 75 76 77 73 69 62 57 67
76 72 80 79 49 31 14 5 34 42 39 46 45 48 49 54 53 47 38 30 41 35 25 22 17 9 2 21 37 36 51 55 54 59 60 58 59 59 62 69 75 83 81 68
114 96 92 64 54 48 32 19 30 35 43 43 37 31 52 59 57 53 51 44 44 37 26 15 20 0 359 10 31 39 44 41 48 54 59 59 61 63 64 64 64 57 52 63
94 47 26 37 71 70 49 39 37 39 42 42 35 25 26 57 54 47 48 65 53 33 32 22 16 5 1 9 27 39 45 43 46 50 52 58 67 72 75 75 73 66 58 52
44 40 31 29 17 41 59 51 48 47 47 42 39 42 35 37 40 34 26 35 48 49 21 10 15 15 14 8 27 43 52 56 53 54 58 62 68 74 80 82 80 77 70 61
52 53 43 37 35 49 49 51 48 53 43 43 61 56 38 19 34 50 45 38 32 34 20 2 18 26 27 19 31 35 42 48 56 58 56 58 67 75 78 76 74 72 70 66
61 59 60 57 47 52 56 50 58 45 27 37 50 45 56 26 357 349 85 60 24 360 29 16 11 28 29 33 31 48 66 64 61 63 66 68 65 64 64 67 77 82 82 81
77 72 69 67 69 68 62 56 64 65 46 23 43 42 63 56 27 24 45 61 28 7 34 26 24 8 24 30 46 48 60 63 66 75 78 77 78 79 81 85 85 84 86 91
94 90 91 93 84 72 55 62 69 59 56 44 4 359 46 90 103 82 53 25 41 9 46 30 14 359 25 29 37 44 49 54 59 63 68 72 75 75 74 74 76 76 76 78
104 99 87 81 93 95 89 76 59 54 57 39 23 1 47 61 36 38 51 29 43 18 48 31 0 6 33 40 45 50 51 49 50 52 55 56 60 66 71 72 71 72 72 69
104 103 116 141 171 118 93 119 136 143 161 114 86 348 17 30 69 56 64 52 67 84 51 20 5 9 38 39 38 38 41 52 57 59 58 56 63 64 66 71 79 84 81 79
121 138 154 188 141 113 135 147 179 155 131 85 65 59 51 53 51 47 31 56 22 43 63 19 9 29 37 45 57 65 54 40 27 53 56 59 62 63 61 47 51 61 62 56
192 128 79 40 41 49 44 29 54 49 16 92 82 57 52 43 49 83 101 61 47 46 62 59 24 30 53 47 49 44 48 37 32 47 56 62 63 63 65 79 76 66 66 68
126 207 178 170 103 60 34 29 20 55 49 27 75 51 65 90 69 68 41 52 51 51 60 69 52 27 24 39 37 50 90 68 31 27 48 53 62 57 38 52 50 68 79 73